User: anonymous   Login
Location: Newark
(48.9886°N, 1.2358°E)
Time: 20:07:29
(UTC+00:00)
Language:

Transit 4A - Orbit

View from above orbital plane
View from above orbital plane
View from above satellite
View from above satellite

Ground track
Ground track

The orbit data is extracted from the following two-line orbital elements,

1   116U 61015A   19324.20720787 -.00000079  00000-0 -18063-5 0  9994
2   116  66.8096   2.1739 0073571 161.1969 199.1854 13.91761657963059
Epoch (UTC): 20 November 2019 04:58:22
Eccentricity: 0.0073571
inclination: 66.8096°
perigee height: 869 km
apogee height: 976 km
right ascension of ascending node: 2.1739°
argument of perigee: 161.1969°
revolutions per day: 13.91761657
mean anomaly at epoch: 199.1854°
orbit number at epoch: 96305

The dashed part of the orbit path shows where the satellite is in the earth's shadow,  

DLR